This is the latest recevied weather packets stored in our database for station/object XW7RMR. If no packets are shown the sender has not sent any weather packets the latest 1 day(s).
| Time | Temp. | Humidity | Pressure | Rain* | Wind** | Luminosity | Snow |
|---|---|---|---|---|---|---|---|
| 1778023903 | 17.78° C | 67% | 1014.4 hPa | 0 mm | 0.89 m/s, 60° | 253 W/m² | - |
| 1778023600 | 18.33° C | 66% | 1014.7 hPa | 0 mm | 0 m/s | 287 W/m² | - |
| 1778023297 | 17.78° C | 66% | 1014.6 hPa | 0 mm | 0 m/s | 311 W/m² | - |
| 1778022994 | 17.78° C | 67% | 1014.4 hPa | 0 mm | 1.79 m/s, 51° | 329 W/m² | - |
| 1778022693 | 17.78° C | 68% | 1014.6 hPa | 0 mm | 1.79 m/s, 56° | 391 W/m² | - |
| 1778022391 | 18.33° C | 67% | 1014.5 hPa | 0 mm | 0.45 m/s, 38° | 344 W/m² | - |
| 1778022086 | 17.78° C | 67% | 1014.5 hPa | 0 mm | 0 m/s | 412 W/m² | - |
| 1778021783 | 18.33° C | 67% | 1014.5 hPa | 0 mm | 0.89 m/s, 41° | 656 W/m² | - |
| 1778021479 | 17.78° C | 69% | 1014.7 hPa | 0 mm | 0.45 m/s, 58° | 429 W/m² | - |
| 1778021176 | 18.33° C | 66% | 1014.7 hPa | 0 mm | 0.45 m/s, 25° | 370 W/m² | - |
| 1778020874 | 17.78° C | 68% | 1014.8 hPa | 0 mm | 0.45 m/s, 78° | 362 W/m² | - |
| 1778020571 | 17.78° C | 67% | 1014.8 hPa | 0 mm | 0 m/s | 417 W/m² | - |
| 1778020267 | 17.78° C | 69% | 1015 hPa | 0 mm | 0.45 m/s, 61° | 370 W/m² | - |
| 1778019963 | 17.22° C | 68% | 1014.9 hPa | 0 mm | 0.45 m/s, 110° | 350 W/m² | - |
| 1778019659 | 17.22° C | 70% | 1014.9 hPa | 0 mm | 0 m/s | 401 W/m² | - |
| 1778019357 | 18.33° C | 67% | 1015 hPa | 0 mm | 0 m/s | 391 W/m² | - |
| 1778019053 | 18.33° C | 66% | 1014.9 hPa | 0 mm | 0 m/s | 367 W/m² | - |
| 1778018750 | 17.22° C | 68% | 1015 hPa | 0 mm | 0 m/s | 359 W/m² | - |
| 1778018448 | 18.33° C | 65% | 1014.9 hPa | 0 mm | 0 m/s | 375 W/m² | - |
| 1778018146 | 17.78° C | 67% | 1015 hPa | 0 mm | 0.45 m/s, 196° | 370 W/m² | - |
| 1778017844 | 17.22° C | 69% | 1015.1 hPa | 0 mm | 1.34 m/s, 353° | 385 W/m² | - |
| 1778017541 | 17.78° C | 67% | 1015.2 hPa | 0 mm | 1.34 m/s, 16° | 299 W/m² | - |
| 1778017238 | 17.78° C | 67% | 1015.1 hPa | 0 mm | 0.89 m/s, 237° | 369 W/m² | - |
| 1778016936 | 17.78° C | 67% | 1015.2 hPa | 0 mm | 0.45 m/s, 41° | 326 W/m² | - |
| 1778016632 | 17.78° C | 67% | 1015.2 hPa | 0 mm | 0.45 m/s, 54° | 362 W/m² | - |
* Rain latest hour (hover to see other rain measurements)
** Current wind speed in m/s (hover to see current wind gust speed)